Home   Weather   Prostějov   Past weeks
Flag for Czechia

Past Weather in Prostějov, Czechia — Yesterday and Last 2 Weeks

Now
60 °F

Lots of rain. Cloudy.


Feels Like: 60 °F
Forecast: 76 / 65 °F
Wind: 3 mph from West

Location: Luka
Current Time: Aug 14, 2020 at 7:30:47 pm
Latest Report: Aug 14, 2020 at 6:00 pm
Visibility: 5 mi
Pressure29.92 "Hg
Humidity: 98%
Dew Point: 60 °F
Location of ProstějovLocation

Past Weather in Prostějov — Graph

°F

Prostějov Temperature Yesterday

Maximum temperature yesterday: 80 °F (at 3:00 pm)
Minimum temperature yesterday: 62 °F (at 6:00 am)
Average temperature yesterday: 72 °F

High & Low Weather Summary for the Past Weeks

 TemperatureHumidityPressure
High83 °F (Aug 8, 4:00 pm)100% (Aug 3, 6:00 am)30.19 "Hg (Aug 3, 6:00 am)
Low51 °F (Aug 4, 11:00 pm)35% (Aug 1, 3:00 pm)29.70 "Hg (Aug 4, 7:00 am)
Average67 °F69%30.01 "Hg
* Reported Jul 30 8:00 pm — Aug 14 6:00 pm, Prostějov. Weather by CustomWeather, © 2020

Note: Actual official high and low records may vary slightly from our data, if they occured in-between our weather recording intervals... More about our weather records

Prostějov Weather History for the Previous 24 Hours

Scroll right to see more
 ConditionsComfort  
Time TempWeatherWind HumidityBarometerVisibility
6:00 pm
Fri, Aug 14
60 °FLots of rain. Cloudy.3 mph98%29.92 "Hg5 mi
5:00 pm61 °FLight rain. Overcast.N/A100%29.95 "Hg7 mi
4:00 pm61 °FThundershowers. Overcast.5 mph96%29.96 "Hg11 mi
3:00 pm62 °FThundershowers. Overcast.9 mph100%29.94 "Hg7 mi
2:00 pm75 °FOvercast.2 mph68%29.86 "Hg19 mi
1:00 pm77 °FPartly sunny.5 mph59%29.87 "Hg19 mi
12:00 pm77 °FPartly sunny.5 mph66%29.88 "Hg19 mi
11:00 am74 °FScattered clouds.5 mph68%29.90 "Hg22 mi
10:00 am70 °FPassing clouds.2 mph73%29.91 "Hg22 mi
9:00 am69 °FPassing clouds.2 mph77%29.92 "Hg22 mi
8:00 am68 °FPassing clouds.N/A74%29.92 "Hg16 mi
7:00 am64 °FMild.2 mph83%29.92 "Hg12 mi
6:00 am64 °FMild.1 mph82%29.93 "Hg16 mi
5:00 am64 °FMild.N/A83%29.93 "Hg18 mi
4:00 am64 °FMild.2 mph82%29.93 "Hg17 mi
3:00 am66 °FMild.2 mph77%29.93 "Hg19 mi
2:00 am67 °FMild.3 mph74%29.93 "Hg22 mi
1:00 am66 °FMild.2 mph77%29.93 "Hg22 mi
12:00 am67 °FMild.N/A76%29.94 "Hg22 mi
11:00 pm
Thu, Aug 13
72 °FMild.2 mph62%29.91 "Hg22 mi
10:00 pm71 °FPassing clouds.2 mph62%29.93 "Hg22 mi
9:00 pm72 °FPassing clouds.2 mph59%29.92 "Hg22 mi
8:00 pm75 °FPassing clouds.1 mph56%29.91 "Hg25 mi
7:00 pm77 °FWarm.3 mph50%29.90 "Hg22 mi
Weather by CustomWeather, © 2020

See weather overview